Home   Weather   Wesseling   Past weeks

Flag for Germany Past Weather in Wesseling, North Rhine-Westphalia, Germany — Yesterday and Last 2 Weeks

Now
61 °F

Drizzle. More clouds than sun.


Feels Like: 61 °F
Forecast: 55 / 68 °F
Wind: 6 mph from Northwest

Location: Koeln / Bonn

Current Time: Aug 18, 2017 at 8:46:22 am

Latest Report: Aug 18, 2017 at 7:50 am


Visibility: 2 mi

Pressure: 29.95 "Hg

Humidity: 100%

Dew Point: 61 °F

Location of WesselingLocation

Past Weather in Wesseling — Graph

°F

Wesseling Temperature Yesterday

Maximum temperature yesterday: 75 °F (at 12:20 pm)
Minimum temperature yesterday: 59 °F (at 5:50 am)
Average temperature yesterday: 67 °F

High & Low Weather Summary for the Past Weeks

 TemperatureHumidityPressure
High81 °F (Aug 3, 4:50 pm)100% (Aug 5, 6:50 am)30.24 "Hg (Aug 5, 6:50 am)
Low48 °F (Aug 7, 3:50 am)36% (Aug 7, 1:20 pm)29.77 "Hg (Aug 8, 10:50 am)
Average64 °F80%30.03 "Hg
* Reported Aug 3 7:20 am — Aug 18 7:25 am, Wesseling. Weather by CustomWeather, © 2017

Note: Actual official high and low records may vary slightly from our data, if they occured in-between our weather recording intervals... More about our weather records

Advertising

Wesseling Weather History for the Previous 24 Hours

Scroll right to see more
 ConditionsComfort  
Time TempWeatherWind HumidityBarometerVisibility
7:25 am
Fri, Aug 18
61 °FDrizzle. More clouds than sun.6 mph100%29.95 "Hg1 mi
7:20 am61 °FDrizzle. More clouds than sun.5 mph100%29.95 "Hg4 mi
6:50 am61 °FLight rain. More clouds than sun.6 mph100%29.95 "Hg5 mi
6:28 am63 °FRain. Broken clouds.1 mph94%29.95 "Hg2 mi
6:20 am63 °FHeavy rain. Mostly cloudy.3 mph94%29.95 "Hg1 mi
5:57 am64 °FRain. Low clouds.6 mph94%29.92 "Hg3 mi
5:20 am64 °FRain. Overcast.3 mph94%29.95 "Hg6 mi
4:50 am64 °FLight rain. Mostly cloudy.6 mph94%29.95 "HgN/A
4:20 am64 °FClear.7 mph94%29.95 "Hg10 mi
3:50 am64 °FClear.7 mph94%29.95 "Hg10 mi
3:20 am64 °FPassing clouds.3 mph94%29.95 "HgN/A
2:50 am61 °FClear.2 mph94%29.98 "Hg10 mi
2:20 am63 °FClear.2 mph94%29.98 "Hg10 mi
1:50 am64 °FClear.5 mph94%29.98 "Hg10 mi
1:20 am64 °FClear.6 mph94%29.98 "Hg10 mi
12:50 am64 °FClear.6 mph94%29.98 "Hg10 mi
12:20 am64 °FClear.6 mph94%29.98 "Hg10 mi
11:50 pm
Thu, Aug 17
64 °FClear.7 mph94%29.98 "Hg10 mi
11:20 pm66 °FPartly cloudy.6 mph88%30.01 "HgN/A
10:50 pm66 °FPassing clouds.5 mph88%30.01 "HgN/A
10:20 pm66 °FPartly cloudy.6 mph88%30.01 "HgN/A
9:50 pm66 °FPassing clouds.7 mph88%30.01 "HgN/A
9:20 pm66 °FPartly cloudy.5 mph88%30.01 "HgN/A
8:50 pm66 °FPartly cloudy.6 mph88%30.01 "HgN/A
8:20 pm68 °FLight rain. Broken clouds.8 mph83%30.01 "HgN/A
7:50 pm68 °FLight rain. Broken clouds.7 mph83%30.01 "HgN/A
7:20 pm68 °FLight rain. Partly sunny.7 mph88%30.01 "HgN/A
6:50 pm68 °FPartly sunny.7 mph94%29.98 "HgN/A
6:20 pm70 °FBroken clouds.3 mph78%30.01 "HgN/A
5:50 pm70 °FPartly sunny.3 mph83%30.01 "HgN/A
5:20 pm68 °FPartly sunny.5 mph88%30.01 "HgN/A
4:50 pm68 °FPartly sunny.3 mph88%30.01 "HgN/A
4:20 pm68 °FLight rain. Partly sunny.3 mph88%30.01 "HgN/A
3:50 pm68 °FLight rain. Partly sunny.3 mph88%30.01 "HgN/A
2:50 pm70 °FLight rain. Broken clouds.12 mph78%30.01 "HgN/A
2:20 pm73 °FLight rain. Partly sunny.10 mph61%30.01 "HgN/A
1:50 pm75 °FPartly sunny.12 mph57%30.01 "HgN/A
1:20 pm73 °FPartly sunny.13 mph61%29.98 "HgN/A
12:50 pm75 °FPartly sunny.15 mph61%30.01 "HgN/A
12:20 pm75 °FBroken clouds.12 mph69%30.01 "HgN/A
11:50 am73 °FSunny.12 mph69%30.01 "Hg10 mi
11:20 am72 °FSunny.10 mph73%30.04 "Hg10 mi
10:50 am72 °FSunny.10 mph73%30.04 "Hg10 mi
10:20 am70 °FSunny.9 mph78%30.04 "Hg10 mi
9:50 am68 °FSunny.7 mph78%30.04 "Hg10 mi
9:20 am68 °FPassing clouds.7 mph78%30.04 "HgN/A
8:50 am66 °FSunny.7 mph83%30.04 "Hg10 mi
8:20 am66 °FPassing clouds.3 mph83%30.04 "HgN/A
Weather by CustomWeather, © 2017

See weather overviewHow to use our weather pages